FW6795 Weather Reports


Display with metric or nautical units.
time (UTC)temp
F
wind
direction
speed
MPH
gust
MPH
rain 1hr
in
rain 24hr
in
rain mn
in
humidity
%
barometer
mb
20260504081552 41 0 0.0 0.0 0.00 0.00 0.00 69 1016.5
20260504081048 41 0 0.0 0.0 0.00 0.00 0.00 68 1016.6
20260504080548 41 0 0.0 0.0 0.00 0.00 0.00 69 1016.6
20260504050548 47 190 3.0 5.0 0.00 0.00 0.00 55 1016.9
20260504050120 47 190 3.0 5.0 0.00 0.00 0.00 56 1016.8
20260504045548 47 190 3.0 4.0 0.00 0.00 0.00 57 1016.9
20260504045048 47 190 2.0 3.0 0.00 0.00 0.00 57 1016.8
20260504044552 46 190 2.0 3.0 0.00 0.00 0.00 59 1016.8
20260504044048 46 190 2.0 4.0 0.00 0.00 0.00 59 1016.9
20260504043548 45 190 1.0 4.0 0.00 0.00 0.00 60 1016.7
20260504043059 44 190 0.0 1.0 0.00 0.00 0.00 62 1016.7
20260504042548 44 0 0.0 1.0 0.00 0.00 0.00 60 1016.6
20260504042047 44 0 0.0 1.0 0.00 0.00 0.00 60 1016.7
20260504041556 44 190 0.0 1.0 0.00 0.00 0.00 61 1016.6
20260504041047 44 0 0.0 2.0 0.00 0.00 0.00 63 1016.7
20260504040547 44 190 0.0 2.0 0.00 0.00 0.00 62 1016.8
20260504040105 43 190 1.0 2.0 0.00 0.00 0.00 62 1016.8
20260504035549 43 190 0.0 2.0 0.00 0.00 0.00 62 1016.9
20260504035049 42 190 0.0 1.0 0.00 0.00 0.00 62 1016.8
20260504034553 43 190 0.0 2.0 0.00 0.00 0.00 63 1016.9
20260504034047 44 190 0.0 2.0 0.00 0.00 0.00 60 1016.7
20260504033548 45 190 2.0 3.0 0.00 0.00 0.00 57 1016.7
20260504033057 45 190 1.0 3.0 0.00 0.00 0.00 55 1016.7
20260504032548 45 190 2.0 2.0 0.00 0.00 0.00 55 1016.7
20260504032049 45 190 1.0 3.0 0.00 0.00 0.00 55 1016.8
20260504031629 46 190 1.0 3.0 0.00 0.00 0.00 54 1016.7
20260504031048 45 190 1.0 2.0 0.00 0.00 0.00 54 1016.6
20260504030548 45 190 1.0 2.0 0.00 0.00 0.00 56 1016.7
20260504030104 45 190 0.0 1.0 0.00 0.00 0.00 56 1016.7
20260504025548 45 190 0.0 1.0 0.00 0.00 0.00 54 1016.9
20260504025051 45 190 0.0 1.0 0.00 0.00 0.00 55 1016.9
20260504024556 45 190 0.0 2.0 0.00 0.00 0.00 54 1017.0
20260504024048 46 0 1.0 3.0 0.00 0.00 0.00 54 1017.0
20260504023548 46 190 1.0 3.0 0.00 0.00 0.00 53 1017.1
20260504023059 46 190 1.0 5.0 0.00 0.00 0.00 51 1017.1
20260504022549 47 190 2.0 5.0 0.00 0.00 0.00 51 1017.0
20260504022047 46 190 2.0 3.0 0.00 0.00 0.00 51 1017.0
20260504021609 45 190 0.0 4.0 0.00 0.00 0.00 53 1016.8
20260504021050 46 0 0.0 4.0 0.00 0.00 0.00 52 1016.7
20260504020548 46 190 2.0 4.0 0.00 0.00 0.00 52 1016.6
20260504020108 46 190 1.0 4.0 0.00 0.00 0.00 52 1016.5
20260504015548 46 190 1.0 4.0 0.00 0.00 0.00 51 1016.8
20260504015048 46 190 1.0 3.0 0.00 0.00 0.00 51 1016.7
20260504014553 46 190 0.0 3.0 0.00 0.00 0.00 52 1016.6
20260504014047 46 190 0.0 2.0 0.00 0.00 0.00 51 1016.6
20260504013548 47 190 0.0 2.0 0.00 0.00 0.00 49 1016.5
20260504013054 47 0 0.0 1.0 0.00 0.00 0.00 49 1016.5
20260504012549 47 190 0.0 1.0 0.00 0.00 0.00 49 1016.5
20260504012048 47 0 0.0 1.0 0.00 0.00 0.00 49 1016.3
20260504011556 48 0 0.0 1.0 0.00 0.00 0.00 48 1016.2
20260504011048 49 0 0.0 1.0 0.00 0.00 0.00 46 1016.2
20260504010547 49 0 0.0 1.0 0.00 0.00 0.00 44 1016.2
20260504010058 50 190 0.0 2.0 0.00 0.00 0.00 43 1015.9
20260504005547 50 190 1.0 2.0 0.00 0.00 0.00 43 1016.0
20260504005047 50 190 0.0 2.0 0.00 0.00 0.00 43 1016.0
20260504004555 50 0 0.0 2.0 0.00 0.00 0.00 44 1016.0
20260504004049 50 190 0.0 2.0 0.00 0.00 0.00 43 1015.9
20260504003548 50 0 0.0 0.0 0.00 0.00 0.00 43 1015.8
20260504003049 51 0 0.0 1.0 0.00 0.00 0.00 42 1015.7
20260504002548 52 0 0.0 2.0 0.00 0.00 0.00 40 1015.8
20260504002048 53 190 1.0 5.0 0.00 0.00 0.00 39 1015.9
20260504001606 53 190 2.0 5.0 0.00 0.00 0.00 39 1015.8
20260504001048 54 190 2.0 8.0 0.00 0.00 0.00 37 1015.9
20260504000547 54 190 3.0 8.0 0.00 0.00 0.00 37 1016.0
20260504000051 54 190 3.0 5.0 0.00 0.00 0.00 38 1015.9
20260503235547 55 190 3.0 7.0 0.00 0.00 0.00 37 1015.9
20260503235050 56 190 3.0 7.0 0.00 0.00 0.00 36 1015.8
20260503234549 56 190 2.0 8.0 0.00 0.00 0.00 36 1015.8
20260503234048 56 190 4.0 8.0 0.00 0.00 0.00 35 1015.7
20260503233547 57 190 4.0 8.0 0.00 0.00 0.00 35 1015.7
20260503233047 57 190 4.0 8.0 0.00 0.00 0.00 34 1015.6
20260503232548 57 190 4.0 8.0 0.00 0.00 0.00 34 1015.6
20260503232048 57 190 4.0 13.0 0.00 0.00 0.00 34 1015.5
20260503231554 57 190 8.0 13.0 0.00 0.00 0.00 34 1015.5
20260503231048 57 190 6.0 12.0 0.00 0.00 0.00 32 1015.4
20260503230553 57 190 5.0 13.0 0.00 0.00 0.00 34 1015.4
20260503230051 58 190 6.0 13.0 0.00 0.00 0.00 32 1015.5
20260503225548 58 190 6.0 12.0 0.00 0.00 0.00 32 1015.5
20260503225052 58 190 6.0 11.0 0.00 0.00 0.00 32 1015.7
20260503224551 58 190 6.0 11.0 0.00 0.00 0.00 31 1015.5
20260503224048 58 190 6.0 13.0 0.00 0.00 0.00 30 1015.6
20260503223548 58 190 7.0 13.0 0.00 0.00 0.00 30 1015.6
20260503223051 58 190 8.0 13.0 0.00 0.00 0.00 28 1015.5
20260503222548 58 190 7.0 13.0 0.00 0.00 0.00 31 1015.6
20260503222047 58 190 8.0 16.0 0.00 0.00 0.00 31 1015.6
20260503221549 58 190 8.0 16.0 0.00 0.00 0.00 30 1015.7
20260503221049 58 190 9.0 16.0 0.00 0.00 0.00 30 1015.7
20260503220548 58 190 7.0 13.0 0.00 0.00 0.00 30 1015.8
20260503220050 58 190 4.0 11.0 0.00 0.00 0.00 31 1015.8
20260503215547 58 190 6.0 12.0 0.00 0.00 0.00 30 1015.8
20260503215048 58 190 6.0 12.0 0.00 0.00 0.00 33 1015.8
20260503214555 58 190 5.0 11.0 0.00 0.00 0.00 33 1015.8
20260503214050 58 190 6.0 11.0 0.00 0.00 0.00 33 1015.9
20260503213547 57 190 5.0 11.0 0.00 0.00 0.00 31 1016.0
20260503213123 58 190 5.0 8.0 0.00 0.00 0.00 32 1015.9
20260503212548 57 190 3.0 11.0 0.00 0.00 0.00 32 1016.0
20260503212050 57 190 4.0 11.0 0.00 0.00 0.00 33 1016.0
20260503211617 57 190 5.0 11.0 0.00 0.00 0.00 33 1016.0
20260503211049 56 190 5.0 14.0 0.00 0.00 0.00 32 1016.1
20260503210548 56 190 4.0 14.0 0.00 0.00 0.00 35 1016.0
20260503210052 57 190 6.0 12.0 0.00 0.00 0.00 31 1016.0
20260503205548 56 190 3.0 11.0 0.00 0.00 0.00 34 1016.0
20260503205048 56 190 8.0 13.0 0.00 0.00 0.00 32 1016.0
20260503204603 56 190 7.0 13.0 0.00 0.00 0.00 34 1016.0
20260503204047 56 190 4.0 13.0 0.00 0.00 0.00 32 1016.1
20260503203547 56 190 3.0 13.0 0.00 0.00 0.00 33 1016.2
20260503203050 56 190 7.0 13.0 0.00 0.00 0.00 32 1016.3
20260503202549 56 190 3.0 12.0 0.00 0.00 0.00 35 1016.2
20260503202051 56 190 4.0 9.0 0.00 0.00 0.00 35 1016.2
20260503201552 55 190 3.0 11.0 0.00 0.00 0.00 36 1016.1
20260503201047 56 190 5.0 14.0 0.00 0.00 0.00 34 1016.3
20260503200548 56 190 5.0 14.0 0.00 0.00 0.00 36 1016.3
20260503200052 55 190 7.0 14.0 0.00 0.00 0.00 34 1016.4
20260503195548 56 190 8.0 11.0 0.00 0.00 0.00 33 1016.5
20260503195047 56 190 2.0 14.0 0.00 0.00 0.00 35 1016.5
20260503194551 55 190 3.0 16.0 0.00 0.00 0.00 37 1016.7
20260503194047 55 190 9.0 20.0 0.00 0.00 0.00 35 1016.8
20260503193547 55 190 8.0 20.0 0.00 0.00 0.00 35 1016.9
20260503193049 54 190 7.0 13.0 0.00 0.00 0.00 35 1016.9
20260503192549 54 190 7.0 13.0 0.00 0.00 0.00 36 1017.0
20260503192047 54 190 8.0 17.0 0.00 0.00 0.00 37 1017.0
20260503191602 54 190 8.0 17.0 0.00 0.00 0.00 38 1017.0
20260503191048 54 190 4.0 14.0 0.00 0.00 0.00 36 1017.0
20260503190548 54 190 3.0 14.0 0.00 0.00 0.00 37 1017.2
20260503190052 53 190 6.0 12.0 0.00 0.00 0.00 37 1017.2
20260503185547 53 190 3.0 19.0 0.00 0.00 0.00 39 1017.3
20260503185047 53 190 5.0 19.0 0.00 0.00 0.00 38 1017.3
20260503184607 53 190 8.0 21.0 0.00 0.00 0.00 38 1017.3
20260503184047 52 190 6.0 21.0 0.00 0.00 0.00 35 1017.6
20260503183549 52 190 10.0 21.0 0.00 0.00 0.00 35 1017.6
20260503183049 52 190 4.0 20.0 0.00 0.00 0.00 40 1017.6
20260503182548 52 190 7.0 20.0 0.00 0.00 0.00 39 1017.9
20260503182048 52 190 9.0 20.0 0.00 0.00 0.00 39 1017.9
20260503181554 51 190 11.0 22.0 0.00 0.00 0.00 43 1017.9
20260503181048 51 190 8.0 22.0 0.00 0.00 0.00 40 1017.9
20260503180550 52 190 8.0 22.0 0.00 0.00 0.00 42 1017.9
20260503180053 51 190 6.0 12.0 0.00 0.00 0.00 43 1017.9
20260503175550 51 190 4.0 15.0 0.00 0.00 0.00 43 1018.0
20260503175049 51 190 8.0 15.0 0.00 0.00 0.00 40 1018.0
20260503174610 51 190 8.0 13.0 0.00 0.00 0.00 41 1017.9
20260503174049 50 190 6.0 16.0 0.00 0.00 0.00 43 1017.9
20260503173551 49 190 5.0 19.0 0.00 0.00 0.00 42 1018.2
20260503173114 50 190 7.0 19.0 0.00 0.00 0.00 42 1018.2
20260503172549 49 190 7.0 19.0 0.00 0.00 0.00 42 1018.2
20260503172053 49 190 5.0 13.0 0.00 0.00 0.00 45 1018.4
20260503171553 49 190 6.0 21.0 0.00 0.00 0.00 45 1018.4
20260503171050 49 190 6.0 23.0 0.00 0.00 0.00 44 1018.5
20260503170549 48 190 10.0 23.0 0.00 0.00 0.00 43 1018.5
20260503150549 43 190 4.0 12.0 0.00 0.00 0.00 55 1019.3
20260503131049 39 190 8.0 20.0 0.00 0.00 0.00 65 1018.7
20260503130549 38 190 8.0 20.0 0.00 0.00 0.00 66 1018.7
20260503110547 34 0 1.0 5.0 0.00 0.00 0.00 80 1017.5